Showing default

LARES, 38077

Orbit data source: Space-Track

LARES, 38077 is a payload satellite owned by ASI (IT) in LEO that was launched on Mon, 13 Feb 2012 UTC via a VEGA launch vehicle from the French Guiana (FRGUI). Payload-class satellites include a variety of spacecraft equipped with specific instruments for various scientific and technological missions. These include communications satellites like Starlink; space stations such as the ISS; scientific satellites like the Hubble; Earth observation satellites from companies like Planet Labs, Umbra, and HawkEye 360; GPS; miniature CubeSats for education and research; and military/defense satellites.

Loading next visibility...
Identifier
38077, 2012-006A
Orbit
LEO
Country
Flag of ITIT
Related business
Manufacturer
CGS
Mission
Operational Civil Technology
Bus & Motor
LARES, Unknown motor
Mass
400 kg wet, 400 kg dry
Launch date (UTC)
2012-02-13 (14 years ago)
Launch vehicle
VEGA
Launch site
French Guiana (FRGUI)
Object type
Payload
Rocket body
Debris
Shape & HBR
Sphere, 0.2 m
Radar Cross Section
0.126 m², Small (<0.1 m²)

Expand to show TLE details & history
Last TLE update: 3 hours ago

TLE from 3 hours ago
0 LARES
1 38077U 12006A   25299.52480914 -.00000033  00000-0  33124-4 0  9998
2 38077  69.4908 331.3653 0011441 264.1514  95.8209 12.54931911627757
Epoch: 2025-10-26T12:35Z
TLE epoch observation values (Epoch: 2025-10-26T12:35:43.509Z)
Latitude
0.00004°
Longitude
107.29426°
Altitude
1,446.973 km
Speed
7.138 km/s
True Right ascension
22h 05m 27s
True Declination
0° 00' 00"
Sunlit
Object was in daylight at epoch
Visualization orbit readout
Latitude
Unknown
Longitude
Unknown
Altitude
Unknown
Speed
Unknown
Apparent Right ascension
Unknown
Apparent Declination
Unknown
Sunlit
N/A
Visualization observer readout
Local Sidereal Time
10:27:00
Azimuth
Unknown
Elevation
Unknown
Doppler factor
Unknown
Orbital elements
Apogee altitude
1,451.107 km
Perigee altitude
1,433.213 km
Semi-major axis
7,820.297 km
Eccentricity
0.00114
Inclination
69.4908°
RAAN
331.3653°
Arg. of periapsis
264.1514°
True anomaly
95.95131°
Mean anomaly
95.8209°
Eccentric anomaly
95.88611°
Mean motion
3.1384 °/min
Orbital period
114.71 mins
BSTAR
0.000033124
Loading maneuver chart data...
Computing Atmospheric mass density...
Loading historical data...
Loading historical data...
Loading historical data...
Loading historical data...
Loading historical data...
Loading historical data...
Loading historical data...

Documentation

Showing up to 5 results
|